CST,Max TemperatureF,Mean TemperatureF,Min TemperatureF,Max Dew PointF,MeanDew PointF,Min DewpointF,Max Humidity, Mean Humidity, Min Humidity, Max Sea Level PressureIn, Mean Sea Level PressureIn, Min Sea Level PressureIn, Max VisibilityMiles, Mean VisibilityMiles, Min VisibilityMiles, Max Wind SpeedMPH, Mean Wind SpeedMPH, Max Gust SpeedMPH,PrecipitationIn, CloudCover, Events, WindDirDegrees
2012-2-1,60,51,42,50,35,28,94,57,34,30.16,30.09,30.05,10,10,10,10,6,,0.00,2,,27
2012-2-2,60,48,35,36,32,28,81,56,34,30.25,30.18,30.14,10,10,10,17,10,24,0.00,0,,113
2012-2-3,51,48,46,48,39,32,100,72,54,30.11,30.03,29.91,10,10,3,24,17,32,0.09,6,Rain-Thunderstorm,119
2012-2-4,51,45,37,52,43,36,100,91,76,30.16,30.05,29.92,10,9,5,17,9,22,0.00,8,,260
2012-2-5,42,38,33,34,31,28,93,83,57,30.34,30.28,30.22,10,10,7,14,9,18,0.00,6,,328
2012-2-6,50,37,24,32,29,23,100,74,43,30.32,30.26,30.18,10,9,5,7,1,,0.00,0,,256
2012-2-7,44,38,32,37,32,28,100,79,61,30.31,30.24,30.19,10,10,5,10,4,,0.04,6,Rain,72
2012-2-8,35,34,32,36,31,28,100,92,75,30.44,30.39,30.35,10,6,0,12,7,,0.00,8,Fog,354
2012-2-9,41,36,32,32,30,28,93,81,65,30.34,30.26,30.13,10,9,7,10,2,,0.00,8,,169
2012-2-10,37,32,24,37,30,10,100,87,51,30.28,30.11,30.03,10,6,2,22,9,29,0.02,7,Rain,282
2012-2-11,26,19,12,5,4,1,73,55,34,30.63,30.54,30.35,10,10,10,21,13,30,0.00,1,,354
2012-2-12,37,24,12,10,5,-2,85,46,19,30.60,30.46,30.23,10,10,10,10,3,,0.00,2,,128
2012-2-13,33,30,28,32,26,9,100,86,35,30.16,29.97,29.78,10,5,1,16,11,22,0.05,8,Rain-Snow,162
2012-2-14,48,40,32,36,33,30,100,83,57,29.96,29.89,29.81,10,9,4,13,8,18,0.00,4,,199
2012-2-15,50,44,37,48,41,34,100,88,76,29.96,29.90,29.83,10,9,5,17,9,22,0.00,7,Rain-Thunderstorm,136
2012-2-16,50,44,37,45,36,30,100,78,50,30.28,30.19,30.02,10,6,1,15,8,16,0.00,4,,347
2012-2-17,55,45,35,41,36,30,87,73,58,30.20,30.13,30.06,10,10,10,13,7,,0.00,1,,157
2012-2-18,46,42,37,43,36,30,100,81,66,30.12,30.06,30.03,10,9,5,14,6,18,0.00,8,Rain,26
2012-2-19,51,42,32,30,28,25,87,62,38,30.10,30.05,30.00,10,10,10,8,4,,0.00,2,,42
2012-2-20,55,44,33,32,29,27,87,60,35,30.05,29.96,29.77,10,10,10,29,14,36,0.00,3,,141
2012-2-21,55,45,35,34,29,21,81,58,29,30.02,29.92,29.78,10,10,10,26,16,36,0.00,2,,247
2012-2-22,64,52,39,46,35,28,82,55,30,29.79,29.63,29.51,10,10,10,20,9,28,0.00,0,,216
2012-2-23,66,56,44,41,35,30,58,46,35,29.72,29.39,29.22,10,10,10,28,12,34,0.00,1,,250
2012-2-24,46,39,32,28,22,14,80,56,29,30.20,30.05,29.80,10,10,10,24,15,31,0.00,1,,294
2012-2-25,51,40,28,28,24,21,87,54,30,30.32,30.24,30.09,10,10,10,12,6,17,0.00,0,,167
2012-2-26,60,48,35,34,27,21,60,42,30,30.10,30.05,29.98,10,10,10,26,13,37,0.00,0,,183
2012-2-27,55,48,41,36,30,27,66,50,36,30.40,30.31,30.18,10,10,10,18,7,24,0.00,2,,36
2012-2-28,68,55,42,59,42,28,88,63,50,30.26,30.04,29.76,10,10,10,26,16,34,0.00,6,Rain-Thunderstorm,140
2012-2-29,66,56,46,59,33,27,100,46,29,29.92,29.85,29.64,10,10,2,33,15,47,0.39,1,Rain-Thunderstorm,249